Address 0x8c81810e928163e4ab6dcfb4c0bd56732177a23c

 
Txn Hash
Block
From
To
Value [Txn Fee]
0x315fda79878339c2e98fb42f79a6eb9e0a2b272a54d03b0a0087e94a0482592554251822021-03-05 21:30:221 day 1 hr ago0x8c81810e928163e4ab6dcfb4c0bd56732177a23cOUT 0x15396d3bd9338a14ae90613fc2b85c5f7b5621cf0 BNB0.00219844
0xcc52feb8f23be648b3de3fcb11057d2cfa1df42a010c26aa66396196f62ddeb054251302021-03-05 21:27:461 day 1 hr agoBinance: Hot Wallet 2 IN 0x8c81810e928163e4ab6dcfb4c0bd56732177a23c0.99060715 BNB0.00021
0xe76a32942939f03d1b5128c34b4015e0f30960a07b7309c4b43954f7afce928a54207372021-03-05 17:48:071 day 4 hrs ago0x8c81810e928163e4ab6dcfb4c0bd56732177a23cOUT 0xf65c1c0478efde3c19b49ecbe7acc57bb6b1d7130 BNB0.0004409
0x5f52972b046f27d9b6af6608e8ebbceb651b0945b2b4c747e8f3caeb3ffb207753946072021-03-04 20:01:362 days 2 hrs ago0x8c81810e928163e4ab6dcfb4c0bd56732177a23cOUT Binance: BUSD Stablecoin0 BNB0.00036127
0x8508720a8a9dcc8b95ddaf41b25e5d0959e3df5a5b9eea0968ff637ae730c79553403822021-03-02 21:27:164 days 1 hr ago0x8c81810e928163e4ab6dcfb4c0bd56732177a23cOUT BSC: Token Hub0.2455754 BNB0.00071223
0x6a23a7ed12e1dd6e090c1a0e00e2941d576cfdd361ec106851f8a780e9c54c3153366082021-03-02 18:18:344 days 4 hrs ago0x8c81810e928163e4ab6dcfb4c0bd56732177a23cOUT BSC: Token Hub0.502 BNB0.00076036
0xf6ace3f7ca36dcc33befbd8fa4ba085012a607530a6a08d5cd4b842e59a8332753360492021-03-02 17:50:374 days 4 hrs ago0x8c81810e928163e4ab6dcfb4c0bd56732177a23cOUT DAI Stablecoin0 BNB0.00036139
0xb4179e279e3e4d005f3ea339c304e37c919be809da8b14c1a5c1b33d8aaeb37353152232021-03-02 0:28:394 days 22 hrs ago0x8c81810e928163e4ab6dcfb4c0bd56732177a23cOUT Binance: BUSD Stablecoin0 BNB0.00036127
0x3d6d8dc293155b9b3656936d11b9e50910abf22a8a053d58abebb655960d789553147522021-03-02 0:05:064 days 22 hrs ago0x8c81810e928163e4ab6dcfb4c0bd56732177a23cOUT 0xc0788a3ad43d79aa53b09c2eacc313a787d1d6070 BNB0.00096394
0x03404f44e3df2847c22ccdb180b30dfacb5855e2d00c5a97262807c2f8cf231a53147142021-03-02 0:03:124 days 22 hrs ago0x8c81810e928163e4ab6dcfb4c0bd56732177a23cOUT 0xc80ea568010bca1ad659d1937e17834972d66e0d0 BNB0.00073842
0xb1ba1584bb5d5d6cfae59fcdd33823f3552b02b1614be2a91ab14de161d9369453146792021-03-02 0:01:274 days 22 hrs ago0x8c81810e928163e4ab6dcfb4c0bd56732177a23cOUT 0xc0788a3ad43d79aa53b09c2eacc313a787d1d6070 BNB0.00136983
0x5bc71e72985290096abc3feda7c4810f0e35abd1eb1b678c802d843424bfe66b53146612021-03-02 0:00:334 days 22 hrs ago0x8c81810e928163e4ab6dcfb4c0bd56732177a23cOUT 0xf65c1c0478efde3c19b49ecbe7acc57bb6b1d7130 BNB0.00044354
0x4711c02a1fbd6e905654444fad896cc98776dc4f26ff1577f6db1d751aa2e04053146442021-03-01 23:59:424 days 22 hrs ago0x8c81810e928163e4ab6dcfb4c0bd56732177a23cOUT 0x5c8d727b265dbafaba67e050f2f739caeeb4a6f90 BNB0.00136928
0xa521c6c7ce9b2888d14759dd23fa0e1c6a7e162e9ab186843568d10bc5764bbe53145252021-03-01 23:53:454 days 22 hrs ago0x8c81810e928163e4ab6dcfb4c0bd56732177a23cOUT 0xc0788a3ad43d79aa53b09c2eacc313a787d1d6070 BNB0.00096382
0x2dab07863a34c03b1573646adbffde54b233edce75e4c225c723955ca786206853145132021-03-01 23:53:094 days 22 hrs ago0x8c81810e928163e4ab6dcfb4c0bd56732177a23cOUT 0xc0788a3ad43d79aa53b09c2eacc313a787d1d6070 BNB0.00114815
0x31ea76504bafef2ccefb7154fd4b7420334feedfea76fada387ae317f3402e6d53144912021-03-01 23:52:034 days 22 hrs ago0x8c81810e928163e4ab6dcfb4c0bd56732177a23cOUT 0x7bd46f6da97312ac2dbd1749f82e202764c0b9140 BNB0.00044354
0x74068cfd06df4a735c4687ec7ed2c9c4027753cf8eae0c51b348f6286992fed453144582021-03-01 23:50:244 days 22 hrs ago0x8c81810e928163e4ab6dcfb4c0bd56732177a23cOUT 0x5c8d727b265dbafaba67e050f2f739caeeb4a6f90 BNB0.0012194
0x2280e0f01cdcaa787b9861cd6de02b47a11714819f79832541baac5071d02cff53144502021-03-01 23:50:004 days 22 hrs ago0x8c81810e928163e4ab6dcfb4c0bd56732177a23cOUT 0x5c8d727b265dbafaba67e050f2f739caeeb4a6f90 BNB0.00128067
0x9c2e636dc0a6aa465b8fa384e6eed2dd8b07712cef2fb15afeff9610e96b8bcd53141882021-03-01 23:36:544 days 23 hrs ago0x8c81810e928163e4ab6dcfb4c0bd56732177a23cOUT DAI Stablecoin0 BNB0.002648646
0xe10e64e69f0c7127f70a2500bfb6b41d86ea7fca54a4a0f4e0ac46e58cc3592353141522021-03-01 23:35:064 days 23 hrs ago0x8c81810e928163e4ab6dcfb4c0bd56732177a23cOUT DAI Stablecoin0 BNB0.004012554
0x16da58fc20e5488caa15167d975d7617ab45e756180b2567da850723d4a55a9553118902021-03-01 21:41:585 days 1 hr ago0x8c81810e928163e4ab6dcfb4c0bd56732177a23cOUT PancakeSwap: Router0 BNB0.00184713
0xbd3ddb7df1651ed1266f9d2657d408ba48950780bc2d2d6e1ba1e9a1a5d6704b53118402021-03-01 21:39:285 days 1 hr ago0x8c81810e928163e4ab6dcfb4c0bd56732177a23cOUT PancakeSwap: Main Staking Contract0 BNB0.00120277
0x9891082e40492c0f5be69d3e29866c39ddef96a4ea2437e162df2310892b90e653118322021-03-01 21:39:045 days 1 hr ago0x8c81810e928163e4ab6dcfb4c0bd56732177a23cOUT PancakeSwap: Main Staking Contract0 BNB0.00111329
0xbf55a013f433e4bad631772806993f93b0fc532490400470df855d8e9548133753118022021-03-01 21:37:345 days 1 hr ago0x8c81810e928163e4ab6dcfb4c0bd56732177a23cOUT 0xc0788a3ad43d79aa53b09c2eacc313a787d1d6070 BNB0.00096382
0x175df3bbf164d06034353a22e186e5c8611e6b2143313fecd88c5d420894f9a053117522021-03-01 21:35:045 days 1 hr ago0x8c81810e928163e4ab6dcfb4c0bd56732177a23cOUT Venus: vBUSD Token0 BNB0.00171355
[ Download CSV Export 
Latest 12 internal transactions
Parent Txn Hash Block From To Value
0xd58c0da73e9641b055e121ff4efaecbf87a280d741f38be3bbefb1a608ca3a4653106362021-03-01 20:39:145 days 2 hrs ago Just Liquidity: Router0x8c81810e928163e4ab6dcfb4c0bd56732177a23c0.387812047167338693 BNB
0xacaa142ebd97db2aae6446415254049871871bfe9ce1dedd04ccb01ad351737751864582021-02-25 12:46:069 days 9 hrs ago 0xc0788a3ad43d79aa53b09c2eacc313a787d1d6070x8c81810e928163e4ab6dcfb4c0bd56732177a23c0.001632156107853354 BNB
0x88a2aac39043d7611a2f9f0bfc940db29c484be0c8e7ab00391166ef08ab6edb51862992021-02-25 12:38:099 days 10 hrs ago PancakeSwap: Router0x8c81810e928163e4ab6dcfb4c0bd56732177a23c0.320904924637562945 BNB
0x5661c1a168d28c0711cad793375499950bd63b1213dec37f4e4134380c280ae851680572021-02-24 21:24:0010 days 1 hr ago 0xc0788a3ad43d79aa53b09c2eacc313a787d1d6070x8c81810e928163e4ab6dcfb4c0bd56732177a23c0.001651057064192162 BNB
0x3a64b83e716d113251304c63c2f3ab57c9798309a536ae54479e12344ebe6d0251678302021-02-24 21:12:3910 days 1 hr ago 0xc0788a3ad43d79aa53b09c2eacc313a787d1d6070x8c81810e928163e4ab6dcfb4c0bd56732177a23c0.001543539798185944 BNB
0xc358185a232d56f7516032de09d2ccc8fd0f306da078d3466600c5b40091659851677302021-02-24 21:07:3910 days 1 hr ago PancakeSwap: Router0x8c81810e928163e4ab6dcfb4c0bd56732177a23c0.541605549701817029 BNB
0x868eb33e86a07eaf3df264f1c6b298ffd3874a9c435b2ec927c9ab78a95bc88851677072021-02-24 21:06:3010 days 1 hr ago PancakeSwap: Router0x8c81810e928163e4ab6dcfb4c0bd56732177a23c0.356897450731756441 BNB
0xf522de812bcc6da40cb5bfbc0bb3593b4b7e5940f93c19660d251eb55508931451375032021-02-23 19:51:1011 days 2 hrs ago PancakeSwap: Router0x8c81810e928163e4ab6dcfb4c0bd56732177a23c0.663677516263894089 BNB
0x63f7bc6c5de63f2f4f135f4a47729569c1be4b787393ff58a65ba4e82abce55f51373482021-02-23 19:43:2511 days 2 hrs ago PancakeSwap: Router0x8c81810e928163e4ab6dcfb4c0bd56732177a23c0.666496309003050269 BNB
0x1a04754bd185ee516682b2c42aef9b70d88112ac200fce3cbc6a0bdfe044e8f751144152021-02-23 0:22:2411 days 22 hrs ago Just Liquidity: Router0x8c81810e928163e4ab6dcfb4c0bd56732177a23c0.000576295981069053 BNB
0x24d1a23af075648654ecd9fd63f105e4e05b51633c7dad8732b4e6445213fd8e51124112021-02-22 22:41:2412 days 1 min ago BSC: Token Hub0x8c81810e928163e4ab6dcfb4c0bd56732177a23c0.38854494 BNB
0x5dad301a47a8f69c0e731ba72a85a27de5f13c056249bf63ba6ef26bbd6dbcce51116942021-02-22 22:05:3312 days 37 mins ago BSC: Token Hub0x8c81810e928163e4ab6dcfb4c0bd56732177a23c0.00246 BNB
[ Download CSV Export 
Loading

Contract Name:
0 BNB

Compiler Version
0

Optimization Enabled:
0 BNB

Other Settings:
-NA-
Block Transaction Gas Used Reward
Age Block Fee Address BC Fee Address Voting Power Jailed Incoming
Block Uncle Number Difficulty Gas Used Reward
Loading
Loading
Make sure to use the "Vote Down" button for any spammy posts, and the "Vote Up" for interesting conversations.